Florala, AL

11:37 PM CDT on March 28, 2017 (GMT -0500)
Florala

Weather History for K0J4 - March, 2013

Change the Weather History Date:

Thursday, March 14, 2013

  Actual Average (KCEW) Record (KCEW)
Temperature  
Mean Temperature 50 °F -  
Max Temperature 63 °F 72 °F 85 °F (1977)
Min Temperature 36 °F 45 °F 21 °F (1993)
Degree Days  
Heating Degree Days 16    
Moisture  
Dew Point 25 °F    
Average Humidity 46    
Maximum Humidity 79    
Minimum Humidity 17    
Precipitation  
Precipitation 0.00 in - - ()
Sea Level Pressure  
Sea Level Pressure 30.35 in    
Wind  
Wind Speed 3 mph (North)    
Max Wind Speed 12 mph    
Max Gust Speed 21 mph    
Visibility 10 miles    
Events      
Averages and records for this station are not official NWS values.
T = Trace of Precipitation, MM = Missing Value Source: NWS Daily Summary

Daily Weather History Graph

Daily Weather History Graph

Search for Another Location

Airport or City:

Trip Planner

Search our weather history database for the weather conditions in past years. The results will help you decide how hot, cold, wet, or windy it might be!

Date:

Astronomy

Mar. 14, 2013 Rise Set
Actual Time 6:56 AM CDT 6:52 PM CDT
Civil Twilight 6:32 AM CDT 7:17 PM CDT
Nautical Twilight 6:04 AM CDT 7:45 PM CDT
Astronomical Twilight 5:35 AM CDT 8:13 PM CDT
Moon 8:23 AM CDT (3/14) 9:52 PM CDT (3/14)
Length of Visible Light 12h 45m
Length of Day
11h 56m
Waxing Crescent, 9% of the Moon is Illuminated
Mar 14
Waxing Crescent
Mar 19
First Quarter
Mar 27
Full
Apr 2
Last Quarter
Apr 10
New

Hourly Weather History & Observations

Time (CDT) Temp. Windchill Dew Point Humidity Pressure Visibility Wind Dir Wind Speed Gust Speed Precip Events Conditions
12:58 AM 43.0 °F - 28.9 °F 58% 30.33 in 10.0 mi Calm Calm - N/A   Clear
1:58 AM 42.1 °F - 28.0 °F 58% 30.34 in 10.0 mi Calm Calm - N/A   Clear
2:58 AM 39.9 °F - 28.9 °F 65% 30.33 in 10.0 mi Calm Calm - N/A   Clear
3:58 AM 41.0 °F 39.0 °F 24.1 °F 51% 30.33 in 10.0 mi NNW 3.5 mph - N/A   Clear
4:58 AM 37.9 °F 35.5 °F 25.0 °F 60% 30.35 in 10.0 mi NNW 3.5 mph - N/A   Clear
5:58 AM 37.0 °F - 25.0 °F 62% 30.37 in 10.0 mi Calm Calm - N/A   Clear
6:58 AM 36.0 °F 33.3 °F 26.1 °F 67% 30.39 in 10.0 mi North 3.5 mph - N/A   Clear
7:58 AM 37.9 °F 32.7 °F 26.1 °F 62% 30.42 in 10.0 mi North 6.9 mph - N/A   Clear
8:58 AM 43.0 °F 36.8 °F 26.1 °F 51% 30.43 in 10.0 mi NNE 11.5 mph 20.7 mph N/A   Clear
9:58 AM 46.9 °F - 24.1 °F 41% 30.43 in 10.0 mi ENE 9.2 mph - N/A   Clear
10:58 AM 51.1 °F - 21.9 °F 32% 30.43 in 10.0 mi NNE 9.2 mph - N/A   Clear
11:58 AM 54.0 °F - 19.9 °F 26% 30.40 in 10.0 mi NNE 10.4 mph - N/A   Clear
12:58 PM 57.9 °F - 21.0 °F 24% 30.36 in 10.0 mi Variable 5.8 mph - N/A   Clear
1:58 PM 59.0 °F - 19.0 °F 21% 30.34 in 10.0 mi North 8.1 mph - N/A   Clear
2:58 PM 61.0 °F - 17.1 °F 18% 30.32 in 10.0 mi Variable 3.5 mph 19.6 mph N/A   Clear
3:58 PM 63.0 °F - 17.1 °F 17% 30.30 in 10.0 mi North 6.9 mph - N/A   Clear
4:58 PM 63.0 °F - 19.0 °F 18% 30.28 in 10.0 mi NNE 9.2 mph - N/A   Clear
5:58 PM 62.1 °F - 19.0 °F 19% 30.29 in 10.0 mi Calm Calm - N/A   Clear
6:58 PM 55.0 °F - 27.0 °F 34% 30.30 in 10.0 mi Calm Calm - N/A   Clear
7:58 PM 48.0 °F - 34.0 °F 58% 30.30 in 10.0 mi Calm Calm - N/A   Clear
8:58 PM 48.0 °F - 32.0 °F 54% 30.31 in 10.0 mi Calm Calm - N/A   Clear
9:58 PM 46.0 °F - 34.0 °F 63% 30.32 in 10.0 mi Calm Calm - N/A   Clear
10:58 PM 44.1 °F - 34.0 °F 68% 30.32 in 10.0 mi Calm Calm - N/A   Clear
11:58 PM 39.9 °F - 34.0 °F 79% 30.32 in 10.0 mi Calm Calm - N/A   Clear